Regional Weather Roundup
Issued by NWS

Home | Current Version | Previous Version | Text Only | Print | Product List | Glossary Off
Versions: 1 2 3 4 5 6 7 8 9 10 11 12 13 14 15 16 17 18 19 20 21 22 23 24 25 26 27 28 29 30 31 32 33 34 35 36 37 38 39 40 41 42 43 44 45 46 47 48 49 50

000
ASUS44 KMEG 200400
RWRTN
TENNESSEE HOURLY STATE WEATHER ROUNDUP
NATIONAL WEATHER SERVICE MEMPHIS TN
1000 PM CST MON FEB 19 2018

TNZ002-004-019-021-049-052-054-088>092-200500-
WEST TENNESSEE

CITY           SKY/WX    TMP DP  RH WIND       PRES   REMARKS
MEMPHIS INTL   FAIR      69  55  60 S14       30.05R
NWS MEMPHIS      N/A     69 N/A N/A MISG        N/A
JACKSON        FAIR      70  61  73 S10G20    30.08R
DYERSBURG      FAIR      68  61  78 S9        30.05R
$$

TNZ008-025-027-028-033-062-065-066-200500-
NORTH MIDDLE TENNESSEE

CITY           SKY/WX    TMP DP  RH WIND       PRES   REMARKS
NASHVILLE      MOCLDY    67  55  65 S15       30.15S
CLARKSVILLE    FAIR      67  56  67 S14G20    30.09S
SMYRNA         FAIR      65  56  72 S6        30.17S
CROSSVILLE     FAIR      59  55  87 S9        30.26S
$$

TNZ061-075-076-078-094-096-097-200500-
SOUTH MIDDLE TENNESSEE

CITY           SKY/WX    TMP DP  RH WIND       PRES   REMARKS
WINCHESTER     PTCLDY    64  55  72 S8        30.23R
$$

TNZ017-018-042-046-047-200500-
NORTHEAST TENNESSEE

CITY           SKY/WX    TMP DP  RH WIND       PRES   REMARKS
TRI CITIES     MOCLDY    53  53 100 CALM      30.30S
$$

TNZ012-013-036-069-073-074-200500-
CENTRAL EAST TENNESSEE

CITY           SKY/WX    TMP DP  RH WIND       PRES   REMARKS
KNOXVILLE      CLOUDY    65  54  67 S7        30.26R
OAK RIDGE      CLOUDY    59  58  96 CALM      30.28R
$$

TNZ083-085-099-200500-
SOUTHEAST TENNESSEE

CITY           SKY/WX    TMP DP  RH WIND       PRES   REMARKS
CHATTANOOGA    FAIR      60  56  86 S6        30.28R
$$

SKY/WX REPORTED AS FAIR MEANS FEW OR NO CLOUDS BELOW
12 THOUSAND FEET.




USA.gov is the U.S. government's official web portal to all federal, state and local government web resources and services.